Time,TemperatureF,DewpointF,PressureIn,WindDirection,WindDirectionDegrees,WindSpeedMPH,WindSpeedGustMPH,Humidity,HourlyPrecipIn,Conditions,Clouds,dailyrainin,SolarRadiationWatts/m^2,SoftwareType,DateUTC
2013-04-09 00:00:00,68.6,50.3,29.91,SSW,200,0.0,2.0,52,0.00,,,0.00,0.00,VWS V14.01,2013-04-09 04:00:00,
2013-04-09 00:04:00,68.5,50.2,29.91,SSW,199,0.0,4.0,52,0.00,,,0.00,0.00,VWS V14.01,2013-04-09 04:04:00,
2013-04-09 00:09:00,68.4,50.1,29.91,SSW,210,0.0,3.0,52,0.00,,,0.00,0.00,VWS V14.01,2013-04-09 04:09:00,
2013-04-09 00:14:00,68.3,50.0,29.91,SSW,202,1.0,3.0,52,0.00,,,0.00,0.00,VWS V14.01,2013-04-09 04:14:00,
2013-04-09 00:19:00,68.4,50.1,29.91,SSW,202,3.0,5.0,52,0.00,,,0.00,0.00,VWS V14.01,2013-04-09 04:19:00,
2013-04-09 00:25:00,68.5,50.2,29.91,SW,218,3.0,6.0,52,0.00,,,0.00,0.00,VWS V14.01,2013-04-09 04:25:00,
2013-04-09 00:30:00,68.6,50.3,29.91,SSW,204,0.0,5.0,52,0.00,,,0.00,0.00,VWS V14.01,2013-04-09 04:30:00,
2013-04-09 00:35:00,68.6,50.3,29.92,SW,217,1.0,3.0,52,0.00,,,0.00,0.00,VWS V14.01,2013-04-09 04:35:00,
2013-04-09 00:40:00,68.6,50.3,29.92,SW,218,0.0,2.0,52,0.00,,,0.00,0.00,VWS V14.01,2013-04-09 04:40:00,
2013-04-09 00:45:00,68.5,50.2,29.92,SW,236,1.0,7.0,52,0.00,,,0.00,0.00,VWS V14.01,2013-04-09 04:45:00,
2013-04-09 00:50:00,68.6,50.3,29.92,SW,218,2.0,7.0,52,0.00,,,0.00,0.00,VWS V14.01,2013-04-09 04:50:00,
2013-04-09 00:55:00,68.7,50.4,29.92,SSW,206,5.0,5.0,52,0.00,,,0.00,0.00,VWS V14.01,2013-04-09 04:55:00,
2013-04-09 01:01:00,68.8,50.5,29.92,WSW,241,0.0,6.0,52,0.00,,,0.00,0.00,VWS V14.01,2013-04-09 05:01:00,
2013-04-09 01:06:00,68.8,51.0,29.92,SSW,211,2.0,2.0,53,0.00,,,0.00,0.00,VWS V14.01,2013-04-09 05:06:00,
2013-04-09 01:11:00,68.8,51.0,29.92,SW,221,0.0,7.0,53,0.00,,,0.00,0.00,VWS V14.01,2013-04-09 05:11:00,
2013-04-09 01:16:00,68.7,50.9,29.92,WSW,240,0.0,1.0,53,0.00,,,0.00,0.00,VWS V14.01,2013-04-09 05:16:00,
2013-04-09 01:22:00,68.6,50.8,29.92,SW,234,1.0,2.0,53,0.00,,,0.00,0.00,VWS V14.01,2013-04-09 05:22:00,
2013-04-09 01:27:00,68.5,50.7,29.92,SW,217,0.0,2.0,53,0.00,,,0.00,0.00,VWS V14.01,2013-04-09 05:27:00,
2013-04-09 01:32:00,68.4,50.6,29.92,SW,223,1.0,1.0,53,0.00,,,0.00,0.00,VWS V14.01,2013-04-09 05:32:00,
2013-04-09 01:37:00,68.4,50.6,29.93,WSW,237,0.0,2.0,53,0.00,,,0.00,0.00,VWS V14.01,2013-04-09 05:37:00,
2013-04-09 01:42:00,68.4,50.6,29.92,SW,236,0.0,2.0,53,0.00,,,0.00,0.00,VWS V14.01,2013-04-09 05:42:00,
2013-04-09 01:47:00,68.5,50.7,29.93,WSW,237,0.0,5.0,53,0.00,,,0.00,0.00,VWS V14.01,2013-04-09 05:47:00,
2013-04-09 01:52:00,68.6,50.8,29.92,WSW,239,0.0,1.0,53,0.00,,,0.00,0.00,VWS V14.01,2013-04-09 05:52:00,
2013-04-09 01:57:00,68.6,50.8,29.92,WSW,237,2.0,2.0,53,0.00,,,0.00,0.00,VWS V14.01,2013-04-09 05:57:00,
2013-04-09 02:02:00,68.7,50.4,29.92,WSW,240,2.0,9.0,52,0.00,,,0.00,0.00,VWS V14.01,2013-04-09 06:02:00,
2013-04-09 02:08:00,68.8,50.5,29.92,SSW,207,1.0,3.0,52,0.00,,,0.00,0.00,VWS V14.01,2013-04-09 06:08:00,
2013-04-09 02:13:00,68.8,51.0,29.92,SSW,194,0.0,1.0,53,0.00,,,0.00,0.00,VWS V14.01,2013-04-09 06:13:00,
2013-04-09 02:18:00,68.5,50.7,29.92,South,189,0.0,1.0,53,0.00,,,0.00,0.00,VWS V14.01,2013-04-09 06:18:00,
2013-04-09 02:23:00,68.0,50.2,29.92,South,189,0.0,1.0,53,0.00,,,0.00,0.00,VWS V14.01,2013-04-09 06:23:00,
2013-04-09 02:28:00,67.4,50.2,29.92,South,189,0.0,0.0,54,0.00,,,0.00,0.00,VWS V14.01,2013-04-09 06:28:00,
2013-04-09 02:34:00,66.7,50.0,29.92,South,188,0.0,1.0,55,0.00,,,0.00,0.00,VWS V14.01,2013-04-09 06:34:00,
2013-04-09 02:39:00,66.1,50.0,29.92,South,188,0.0,1.0,56,0.00,,,0.00,0.00,VWS V14.01,2013-04-09 06:39:00,
2013-04-09 02:44:00,65.4,49.8,29.92,South,187,0.0,1.0,57,0.00,,,0.00,0.00,VWS V14.01,2013-04-09 06:44:00,
2013-04-09 02:49:00,64.9,49.8,29.92,South,187,0.0,1.0,58,0.00,,,0.00,0.00,VWS V14.01,2013-04-09 06:49:00,
2013-04-09 02:54:00,64.4,49.8,29.92,South,187,0.0,0.0,59,0.00,,,0.00,0.00,VWS V14.01,2013-04-09 06:54:00,
2013-04-09 02:59:00,64.1,50.0,29.93,South,187,0.0,1.0,60,0.00,,,0.00,0.00,VWS V14.01,2013-04-09 06:59:00,
2013-04-09 03:04:00,63.8,50.1,29.93,South,187,0.0,1.0,61,0.00,,,0.00,0.00,VWS V14.01,2013-04-09 07:04:00,
2013-04-09 03:09:00,63.5,49.8,29.93,South,187,0.0,1.0,61,0.00,,,0.00,0.00,VWS V14.01,2013-04-09 07:09:00,
2013-04-09 03:15:00,63.2,50.0,29.93,South,186,0.0,1.0,62,0.00,,,0.00,0.00,VWS V14.01,2013-04-09 07:15:00,
2013-04-09 03:20:00,63.1,49.9,29.93,South,186,0.0,1.0,62,0.00,,,0.00,0.00,VWS V14.01,2013-04-09 07:20:00,
2013-04-09 03:25:00,62.9,49.7,29.94,South,186,0.0,1.0,62,0.00,,,0.00,0.00,VWS V14.01,2013-04-09 07:25:00,
2013-04-09 03:30:00,62.8,50.0,29.94,South,184,0.0,0.0,63,0.00,,,0.00,0.00,VWS V14.01,2013-04-09 07:30:00,
2013-04-09 03:35:00,62.7,49.9,29.94,South,186,0.0,1.0,63,0.00,,,0.00,0.00,VWS V14.01,2013-04-09 07:35:00,
2013-04-09 03:40:00,62.6,49.8,29.94,South,186,0.0,1.0,63,0.00,,,0.00,0.00,VWS V14.01,2013-04-09 07:40:00,
2013-04-09 03:45:00,62.6,49.8,29.94,South,186,0.0,1.0,63,0.00,,,0.00,0.00,VWS V14.01,2013-04-09 07:45:00,
2013-04-09 03:50:00,62.5,50.2,29.94,South,186,0.0,0.0,64,0.00,,,0.00,0.00,VWS V14.01,2013-04-09 07:50:00,
2013-04-09 03:55:00,62.6,49.8,29.94,South,186,0.0,0.0,63,0.00,,,0.00,0.00,VWS V14.01,2013-04-09 07:55:00,
2013-04-09 04:01:00,62.6,50.3,29.94,South,186,0.0,0.0,64,0.00,,,0.00,0.00,VWS V14.01,2013-04-09 08:01:00,
2013-04-09 04:06:00,62.8,50.0,29.94,WSW,257,0.0,1.0,63,0.00,,,0.00,0.00,VWS V14.01,2013-04-09 08:06:00,
2013-04-09 04:11:00,63.0,50.2,29.95,SW,219,1.0,3.0,63,0.00,,,0.00,0.00,VWS V14.01,2013-04-09 08:11:00,
2013-04-09 04:17:00,63.2,50.4,29.95,SW,221,4.0,4.0,63,0.00,,,0.00,0.00,VWS V14.01,2013-04-09 08:17:00,
2013-04-09 04:22:00,63.4,50.2,29.95,SSW,212,0.0,0.0,62,0.00,,,0.00,0.00,VWS V14.01,2013-04-09 08:22:00,
2013-04-09 04:27:00,63.6,50.4,29.95,SSW,212,0.0,1.0,62,0.00,,,0.00,0.00,VWS V14.01,2013-04-09 08:27:00,
2013-04-09 04:32:00,63.7,50.5,29.95,SSW,212,0.0,1.0,62,0.00,,,0.00,0.00,VWS V14.01,2013-04-09 08:32:00,
2013-04-09 04:37:00,63.7,50.5,29.95,SSW,212,0.0,0.0,62,0.00,,,0.00,0.00,VWS V14.01,2013-04-09 08:37:00,
2013-04-09 04:42:00,63.8,50.5,29.95,SSW,210,0.0,4.0,62,0.00,,,0.00,0.00,VWS V14.01,2013-04-09 08:42:00,
2013-04-09 04:47:00,63.8,50.5,29.95,SW,214,0.0,5.0,62,0.00,,,0.00,0.00,VWS V14.01,2013-04-09 08:47:00,
2013-04-09 04:52:00,63.8,50.5,29.96,SW,214,0.0,1.0,62,0.00,,,0.00,0.00,VWS V14.01,2013-04-09 08:52:00,
2013-04-09 04:58:00,63.8,50.5,29.96,SSW,211,0.0,2.0,62,0.00,,,0.00,0.00,VWS V14.01,2013-04-09 08:58:00,
2013-04-09 05:03:00,63.9,50.6,29.96,SSW,211,0.0,4.0,62,0.00,,,0.00,0.00,VWS V14.01,2013-04-09 09:03:00,
2013-04-09 05:08:00,63.9,50.6,29.96,SSW,195,0.0,3.0,62,0.00,,,0.00,0.00,VWS V14.01,2013-04-09 09:08:00,
2013-04-09 05:13:00,63.9,50.6,29.96,SSW,196,2.0,2.0,62,0.00,,,0.00,0.00,VWS V14.01,2013-04-09 09:13:00,
2013-04-09 05:18:00,63.9,50.6,29.96,SSW,209,3.0,3.0,62,0.00,,,0.00,0.00,VWS V14.01,2013-04-09 09:18:00,
2013-04-09 05:23:00,63.9,50.6,29.97,SSW,194,0.0,4.0,62,0.00,,,0.00,0.00,VWS V14.01,2013-04-09 09:23:00,
2013-04-09 05:28:00,63.8,50.5,29.97,SSW,200,0.0,2.0,62,0.00,,,0.00,0.00,VWS V14.01,2013-04-09 09:28:00,
2013-04-09 05:33:00,63.7,50.9,29.97,SSW,196,0.0,2.0,63,0.00,,,0.00,0.00,VWS V14.01,2013-04-09 09:33:00,
2013-04-09 05:39:00,63.6,50.8,29.97,SSW,198,0.0,1.0,63,0.00,,,0.00,0.00,VWS V14.01,2013-04-09 09:39:00,
2013-04-09 05:44:00,63.4,50.6,29.97,South,186,0.0,3.0,63,0.00,,,0.00,0.00,VWS V14.01,2013-04-09 09:44:00,
2013-04-09 05:49:00,63.2,50.4,29.98,South,186,1.0,1.0,63,0.00,,,0.00,0.00,VWS V14.01,2013-04-09 09:49:00,
2013-04-09 05:55:00,63.0,50.7,29.98,SW,214,0.0,5.0,64,0.00,,,0.00,0.00,VWS V14.01,2013-04-09 09:55:00,
2013-04-09 06:00:00,63.0,50.7,29.99,SW,214,1.0,1.0,64,0.00,,,0.00,0.00,VWS V14.01,2013-04-09 10:00:00,
2013-04-09 06:05:00,62.9,50.5,29.99,SW,214,0.0,3.0,64,0.00,,,0.00,0.00,VWS V14.01,2013-04-09 10:05:00,
2013-04-09 06:10:00,62.9,50.5,29.99,SW,214,0.0,1.0,64,0.00,,,0.00,0.00,VWS V14.01,2013-04-09 10:10:00,
2013-04-09 06:15:00,62.8,50.9,29.99,SW,214,0.0,1.0,65,0.00,,,0.00,0.00,VWS V14.01,2013-04-09 10:15:00,
2013-04-09 06:20:00,62.6,50.7,29.99,South,178,0.0,1.0,65,0.00,,,0.00,0.00,VWS V14.01,2013-04-09 10:20:00,
2013-04-09 06:25:00,62.5,50.6,29.99,South,178,0.0,0.0,65,0.00,,,0.00,0.00,VWS V14.01,2013-04-09 10:25:00,
2013-04-09 06:30:00,62.4,50.9,29.99,South,191,0.0,0.0,66,0.00,,,0.00,0.00,VWS V14.01,2013-04-09 10:30:00,
2013-04-09 06:36:00,62.3,50.8,29.99,SSW,194,0.0,1.0,66,0.00,,,0.00,0.00,VWS V14.01,2013-04-09 10:36:00,
2013-04-09 06:41:00,62.3,50.8,30.00,SSW,194,0.0,0.0,66,0.00,,,0.00,0.00,VWS V14.01,2013-04-09 10:41:00,
2013-04-09 06:46:00,62.4,50.9,30.00,SSW,194,0.0,0.0,66,0.00,,,0.00,0.00,VWS V14.01,2013-04-09 10:46:00,
2013-04-09 06:51:00,62.4,50.9,30.00,SSW,194,0.0,0.0,66,0.00,,,0.00,5.00,VWS V14.01,2013-04-09 10:51:00,
2013-04-09 06:57:00,62.3,50.8,30.00,SSW,202,0.0,2.0,66,0.00,,,0.00,9.00,VWS V14.01,2013-04-09 10:57:00,
2013-04-09 07:02:00,62.2,51.1,30.00,South,180,2.0,3.0,67,0.00,,,0.00,12.00,VWS V14.01,2013-04-09 11:02:00,
2013-04-09 07:07:00,62.1,51.0,30.01,South,180,0.0,0.0,67,0.00,,,0.00,18.00,VWS V14.01,2013-04-09 11:07:00,
2013-04-09 07:12:00,62.0,50.9,30.01,South,186,1.0,4.0,67,0.00,,,0.00,23.00,VWS V14.01,2013-04-09 11:12:00,
2013-04-09 07:17:00,62.0,51.3,30.01,South,181,0.0,1.0,68,0.00,,,0.00,28.00,VWS V14.01,2013-04-09 11:17:00,
2013-04-09 07:22:00,62.1,51.4,30.01,South,180,0.0,1.0,68,0.00,,,0.00,35.00,VWS V14.01,2013-04-09 11:22:00,
2013-04-09 07:27:00,62.2,51.5,30.01,South,178,0.0,1.0,68,0.00,,,0.00,42.00,VWS V14.01,2013-04-09 11:27:00,
2013-04-09 07:32:00,62.3,51.6,30.01,South,175,0.0,1.0,68,0.00,,,0.00,47.00,VWS V14.01,2013-04-09 11:32:00,
2013-04-09 07:37:00,62.6,51.9,30.01,South,183,0.0,3.0,68,0.00,,,0.00,47.00,VWS V14.01,2013-04-09 11:37:00,
2013-04-09 07:43:00,62.9,52.2,30.02,South,183,1.0,1.0,68,0.00,,,0.00,51.00,VWS V14.01,2013-04-09 11:43:00,
2013-04-09 07:48:00,63.3,52.6,30.02,SSW,199,0.0,0.0,68,0.00,,,0.00,54.00,VWS V14.01,2013-04-09 11:48:00,
2013-04-09 07:53:00,63.7,52.5,30.02,SSW,199,0.0,1.0,67,0.00,,,0.00,58.00,VWS V14.01,2013-04-09 11:53:00,
2013-04-09 07:58:00,64.2,53.0,30.02,SSW,199,0.0,1.0,67,0.00,,,0.00,62.00,VWS V14.01,2013-04-09 11:58:00,
2013-04-09 08:03:00,64.6,53.0,30.02,WSW,248,1.0,3.0,66,0.00,,,0.00,67.00,VWS V14.01,2013-04-09 12:03:00,
2013-04-09 08:08:00,65.2,53.2,30.02,WSW,245,0.0,5.0,65,0.00,,,0.00,77.00,VWS V14.01,2013-04-09 12:08:00,
2013-04-09 08:13:00,66.1,54.0,30.02,WSW,245,2.0,4.0,65,0.00,,,0.00,113.00,VWS V14.01,2013-04-09 12:13:00,
2013-04-09 08:18:00,66.9,53.9,30.02,WSW,248,0.0,3.0,63,0.00,,,0.00,137.00,VWS V14.01,2013-04-09 12:18:00,
2013-04-09 08:23:00,67.6,54.6,30.03,WSW,248,0.0,1.0,63,0.00,,,0.00,144.00,VWS V14.01,2013-04-09 12:23:00,
2013-04-09 08:28:00,68.0,54.5,30.02,WSW,248,0.0,6.0,62,0.00,,,0.00,155.00,VWS V14.01,2013-04-09 12:28:00,
2013-04-09 08:34:00,68.4,54.9,30.02,SW,227,0.0,6.0,62,0.00,,,0.00,151.00,VWS V14.01,2013-04-09 12:34:00,
2013-04-09 08:39:00,68.7,54.7,30.02,WSW,247,1.0,7.0,61,0.00,,,0.00,178.00,VWS V14.01,2013-04-09 12:39:00,
2013-04-09 08:44:00,69.2,55.6,30.02,West,263,0.0,5.0,62,0.00,,,0.00,236.00,VWS V14.01,2013-04-09 12:44:00,
2013-04-09 08:49:00,69.5,55.0,30.02,WSW,252,2.0,6.0,60,0.00,,,0.00,244.00,VWS V14.01,2013-04-09 12:49:00,
2013-04-09 08:54:00,70.1,55.6,30.02,SW,235,4.0,5.0,60,0.00,,,0.00,258.00,VWS V14.01,2013-04-09 12:54:00,
2013-04-09 08:59:00,70.5,56.4,30.02,WSW,249,0.0,5.0,61,0.00,,,0.00,262.00,VWS V14.01,2013-04-09 12:59:00,
2013-04-09 09:04:00,70.9,55.9,30.02,West,267,3.0,6.0,59,0.00,,,0.00,292.00,VWS V14.01,2013-04-09 13:04:00,
2013-04-09 09:09:00,71.2,55.7,30.02,WSW,237,1.0,8.0,58,0.00,,,0.00,316.00,VWS V14.01,2013-04-09 13:09:00,
2013-04-09 09:15:00,71.4,56.3,30.02,WSW,254,1.0,10.0,59,0.00,,,0.00,329.00,VWS V14.01,2013-04-09 13:15:00,
2013-04-09 09:20:00,71.7,56.2,30.02,SSW,210,1.0,7.0,58,0.00,,,0.00,346.00,VWS V14.01,2013-04-09 13:20:00,
2013-04-09 09:25:00,72.0,56.4,30.03,WSW,258,0.0,7.0,58,0.00,,,0.00,352.00,VWS V14.01,2013-04-09 13:25:00,
2013-04-09 09:30:00,72.3,56.7,30.03,WSW,246,1.0,5.0,58,0.00,,,0.00,366.00,VWS V14.01,2013-04-09 13:30:00,
2013-04-09 09:35:00,72.5,56.4,30.03,SW,227,2.0,5.0,57,0.00,,,0.00,371.00,VWS V14.01,2013-04-09 13:35:00,
2013-04-09 09:40:00,72.7,57.1,30.03,WNW,301,0.0,6.0,58,0.00,,,0.00,374.00,VWS V14.01,2013-04-09 13:40:00,
2013-04-09 09:45:00,73.0,56.9,30.03,WSW,248,4.0,7.0,57,0.00,,,0.00,378.00,VWS V14.01,2013-04-09 13:45:00,
2013-04-09 09:50:00,73.1,57.5,30.03,WNW,300,0.0,2.0,58,0.00,,,0.00,357.00,VWS V14.01,2013-04-09 13:50:00,
2013-04-09 09:57:00,73.4,57.3,30.03,NW,305,4.0,10.0,57,0.00,,,0.00,357.00,VWS V14.01,2013-04-09 13:57:00,
2013-04-09 10:02:00,73.7,58.0,30.03,NW,323,1.0,9.0,58,0.00,,,0.00,357.00,VWS V14.01,2013-04-09 14:02:00,
2013-04-09 10:07:00,73.9,57.2,30.03,NW,313,3.0,3.0,56,0.00,,,0.00,371.00,VWS V14.01,2013-04-09 14:07:00,
2013-04-09 10:12:00,74.0,57.3,30.03,West,281,0.0,4.0,56,0.00,,,0.00,371.00,VWS V14.01,2013-04-09 14:12:00,
2013-04-09 10:17:00,74.1,57.4,30.03,NW,322,2.0,4.0,56,0.00,,,0.00,415.00,VWS V14.01,2013-04-09 14:17:00,
2013-04-09 10:22:00,74.3,58.1,30.03,WNW,296,0.0,6.0,57,0.00,,,0.00,436.00,VWS V14.01,2013-04-09 14:22:00,
2013-04-09 10:27:00,74.5,58.8,30.03,NW,319,0.0,3.0,58,0.00,,,0.00,429.00,VWS V14.01,2013-04-09 14:27:00,
2013-04-09 10:33:00,74.7,58.5,30.03,WNW,288,4.0,5.0,57,0.00,,,0.00,499.00,VWS V14.01,2013-04-09 14:33:00,
2013-04-09 10:38:00,75.1,58.3,30.03,NNW,333,3.0,12.0,56,0.00,,,0.00,501.00,VWS V14.01,2013-04-09 14:38:00,
2013-04-09 10:43:00,75.1,57.8,30.03,North,349,5.0,10.0,55,0.00,,,0.00,519.00,VWS V14.01,2013-04-09 14:43:00,
2013-04-09 10:48:00,75.1,57.8,30.04,WNW,296,6.0,9.0,55,0.00,,,0.00,561.00,VWS V14.01,2013-04-09 14:48:00,
2013-04-09 10:53:00,75.0,58.3,30.04,NW,320,5.0,7.0,56,0.00,,,0.00,591.00,VWS V14.01,2013-04-09 14:53:00,
2013-04-09 11:02:00,75.2,57.9,30.03,NW,309,1.0,4.0,55,0.00,,,0.00,628.00,VWS V14.01,2013-04-09 15:02:00,
2013-04-09 11:07:00,75.5,58.7,30.03,NW,324,5.0,7.0,56,0.00,,,0.00,605.00,VWS V14.01,2013-04-09 15:07:00,
2013-04-09 11:13:00,75.8,59.5,30.03,NW,323,1.0,7.0,57,0.00,,,0.00,594.00,VWS V14.01,2013-04-09 15:13:00,
2013-04-09 11:18:00,75.9,58.6,30.04,NW,323,6.0,12.0,55,0.00,,,0.00,570.00,VWS V14.01,2013-04-09 15:18:00,
2013-04-09 11:23:00,75.9,58.6,30.03,WNW,288,0.0,8.0,55,0.00,,,0.00,554.00,VWS V14.01,2013-04-09 15:23:00,
2013-04-09 11:28:00,76.2,58.9,30.03,NW,325,0.0,3.0,55,0.00,,,0.00,533.00,VWS V14.01,2013-04-09 15:28:00,
2013-04-09 11:33:00,76.5,58.6,30.03,NW,325,7.0,9.0,54,0.00,,,0.00,527.00,VWS V14.01,2013-04-09 15:33:00,
2013-04-09 11:38:00,76.5,58.1,30.03,WNW,296,3.0,11.0,53,0.00,,,0.00,548.00,VWS V14.01,2013-04-09 15:38:00,
2013-04-09 11:43:00,76.7,59.3,30.03,NW,311,2.0,4.0,55,0.00,,,0.00,571.00,VWS V14.01,2013-04-09 15:43:00,
2013-04-09 11:48:00,76.8,59.4,30.03,West,269,6.0,8.0,55,0.00,,,0.00,582.00,VWS V14.01,2013-04-09 15:48:00,
2013-04-09 11:53:00,77.1,58.7,30.03,WNW,294,2.0,7.0,53,0.00,,,0.00,643.00,VWS V14.01,2013-04-09 15:53:00,
2013-04-09 11:59:00,77.0,58.6,30.03,West,260,0.0,8.0,53,0.00,,,0.00,640.00,VWS V14.01,2013-04-09 15:59:00,
2013-04-09 12:04:00,76.6,58.7,30.03,West,268,0.0,5.0,54,0.00,,,0.00,664.00,VWS V14.01,2013-04-09 16:04:00,
2013-04-09 12:09:00,76.8,58.9,30.03,NNW,334,2.0,6.0,54,0.00,,,0.00,668.00,VWS V14.01,2013-04-09 16:09:00,
2013-04-09 12:14:00,77.4,58.4,30.03,NW,315,7.0,8.0,52,0.00,,,0.00,603.00,VWS V14.01,2013-04-09 16:14:00,
2013-04-09 12:20:00,77.5,60.6,30.02,West,263,3.0,7.0,56,0.00,,,0.00,610.00,VWS V14.01,2013-04-09 16:20:00,
2013-04-09 12:25:00,77.8,58.8,30.02,WNW,291,2.0,7.0,52,0.00,,,0.00,599.00,VWS V14.01,2013-04-09 16:25:00,
2013-04-09 12:30:00,78.3,59.8,30.02,NW,314,4.0,9.0,53,0.00,,,0.00,580.00,VWS V14.01,2013-04-09 16:30:00,
2013-04-09 12:35:00,78.2,59.2,30.01,West,268,1.0,6.0,52,0.00,,,0.00,640.00,VWS V14.01,2013-04-09 16:35:00,
2013-04-09 12:40:00,78.4,58.8,30.01,NW,324,7.0,13.0,51,0.00,,,0.00,701.00,VWS V14.01,2013-04-09 16:40:00,
2013-04-09 12:45:00,78.3,58.2,30.01,NW,321,4.0,12.0,50,0.00,,,0.00,733.00,VWS V14.01,2013-04-09 16:45:00,
2013-04-09 12:50:00,78.2,58.6,30.00,WSW,237,2.0,13.0,51,0.00,,,0.00,759.00,VWS V14.01,2013-04-09 16:50:00,
2013-04-09 12:55:00,78.9,60.3,30.00,WSW,237,5.0,10.0,53,0.00,,,0.00,742.00,VWS V14.01,2013-04-09 16:55:00,
2013-04-09 13:00:00,79.1,58.9,30.00,NW,311,5.0,9.0,50,0.00,,,0.00,752.00,VWS V14.01,2013-04-09 17:00:00,
2013-04-09 13:05:00,78.9,58.7,30.00,West,273,0.0,2.0,50,0.00,,,0.00,758.00,VWS V14.01,2013-04-09 17:05:00,
2013-04-09 13:10:00,79.0,59.3,30.00,NNW,331,8.0,11.0,51,0.00,,,0.00,780.00,VWS V14.01,2013-04-09 17:10:00,
2013-04-09 13:15:00,78.7,58.5,30.00,NNW,331,5.0,5.0,50,0.00,,,0.00,773.00,VWS V14.01,2013-04-09 17:15:00,
2013-04-09 13:20:00,79.1,60.0,30.00,WNW,294,5.0,5.0,52,0.00,,,0.00,807.00,VWS V14.01,2013-04-09 17:20:00,
2013-04-09 13:26:00,79.2,58.4,30.00,NW,317,1.0,2.0,49,0.00,,,0.00,824.00,VWS V14.01,2013-04-09 17:26:00,
2013-04-09 13:31:00,79.5,58.7,29.99,WSW,249,0.0,1.0,49,0.00,,,0.00,814.00,VWS V14.01,2013-04-09 17:31:00,
2013-04-09 13:36:00,79.4,58.6,29.99,SSE,168,0.0,3.0,49,0.00,,,0.00,817.00,VWS V14.01,2013-04-09 17:36:00,
2013-04-09 13:42:00,79.9,60.2,29.98,WNW,300,8.0,10.0,51,0.00,,,0.00,816.00,VWS V14.01,2013-04-09 17:42:00,
2013-04-09 13:47:00,80.1,60.4,29.98,NW,310,0.0,3.0,51,0.00,,,0.00,810.00,VWS V14.01,2013-04-09 17:47:00,
2013-04-09 13:52:00,80.6,60.8,29.98,NW,308,5.0,8.0,51,0.00,,,0.00,819.00,VWS V14.01,2013-04-09 17:52:00,
2013-04-09 13:57:00,81.0,58.9,29.98,SW,221,1.0,8.0,47,0.00,,,0.00,823.00,VWS V14.01,2013-04-09 17:57:00,
2013-04-09 14:02:00,81.0,58.9,29.98,WNW,303,9.0,9.0,47,0.00,,,0.00,320.00,VWS V14.01,2013-04-09 18:02:00,
2013-04-09 14:07:00,80.9,58.8,29.97,NW,315,0.0,7.0,47,0.00,,,0.00,766.00,VWS V14.01,2013-04-09 18:07:00,
2013-04-09 14:13:00,81.2,59.1,29.97,NW,313,3.0,7.0,47,0.00,,,0.00,795.00,VWS V14.01,2013-04-09 18:13:00,
2013-04-09 14:18:00,81.2,59.1,29.96,NW,318,8.0,8.0,47,0.00,,,0.00,802.00,VWS V14.01,2013-04-09 18:18:00,
2013-04-09 14:23:00,80.6,58.5,29.96,West,281,0.0,7.0,47,0.00,,,0.00,234.00,VWS V14.01,2013-04-09 18:23:00,
2013-04-09 14:28:00,80.4,57.8,29.96,NW,318,1.0,5.0,46,0.00,,,0.00,826.00,VWS V14.01,2013-04-09 18:28:00,
2013-04-09 14:33:00,81.1,58.4,29.96,SW,234,0.0,3.0,46,0.00,,,0.00,777.00,VWS V14.01,2013-04-09 18:33:00,
2013-04-09 14:38:00,81.5,58.1,29.95,South,190,0.0,1.0,45,0.00,,,0.00,789.00,VWS V14.01,2013-04-09 18:38:00,
2013-04-09 14:43:00,82.0,59.2,29.95,NW,306,0.0,2.0,46,0.00,,,0.00,791.00,VWS V14.01,2013-04-09 18:43:00,
2013-04-09 14:48:00,82.2,59.4,29.95,SW,225,4.0,5.0,46,0.00,,,0.00,819.00,VWS V14.01,2013-04-09 18:48:00,
2013-04-09 14:53:00,81.9,57.9,29.95,West,265,0.0,1.0,44,0.00,,,0.00,241.00,VWS V14.01,2013-04-09 18:53:00,
2013-04-09 14:59:00,81.5,59.3,29.95,SSW,200,0.0,8.0,47,0.00,,,0.00,833.00,VWS V14.01,2013-04-09 18:59:00,
2013-04-09 15:04:00,81.4,58.7,29.95,NNW,346,3.0,3.0,46,0.00,,,0.00,316.00,VWS V14.01,2013-04-09 19:04:00,
2013-04-09 15:09:00,81.5,58.1,29.94,NNW,340,0.0,3.0,45,0.00,,,0.00,251.00,VWS V14.01,2013-04-09 19:09:00,
2013-04-09 15:14:00,81.7,58.9,29.94,ESE,112,3.0,8.0,46,0.00,,,0.00,833.00,VWS V14.01,2013-04-09 19:14:00,
2013-04-09 15:19:00,82.3,60.1,29.94,WSW,244,0.0,5.0,47,0.00,,,0.00,295.00,VWS V14.01,2013-04-09 19:19:00,
2013-04-09 15:24:00,82.7,59.8,29.93,SSW,205,4.0,11.0,46,0.00,,,0.00,765.00,VWS V14.01,2013-04-09 19:24:00,
2013-04-09 15:30:00,82.9,58.8,29.93,SW,214,3.0,9.0,44,0.00,,,0.00,719.00,VWS V14.01,2013-04-09 19:30:00,
2013-04-09 15:35:00,83.0,58.9,29.93,SSW,199,5.0,12.0,44,0.00,,,0.00,726.00,VWS V14.01,2013-04-09 19:35:00,
2013-04-09 15:40:00,82.9,58.8,29.93,SSW,211,0.0,9.0,44,0.00,,,0.00,684.00,VWS V14.01,2013-04-09 19:40:00,
2013-04-09 15:45:00,83.0,60.7,29.93,SSW,196,2.0,12.0,47,0.00,,,0.00,673.00,VWS V14.01,2013-04-09 19:45:00,
2013-04-09 15:50:00,83.0,60.1,29.92,South,190,7.0,9.0,46,0.00,,,0.00,670.00,VWS V14.01,2013-04-09 19:50:00,
2013-04-09 15:55:00,83.0,60.1,29.92,SE,146,4.0,9.0,46,0.00,,,0.00,244.00,VWS V14.01,2013-04-09 19:55:00,
2013-04-09 16:00:00,82.9,60.0,29.92,SE,135,9.0,9.0,46,0.00,,,0.00,715.00,VWS V14.01,2013-04-09 20:00:00,
2013-04-09 16:05:00,83.0,59.5,29.92,South,190,2.0,4.0,45,0.00,,,0.00,281.00,VWS V14.01,2013-04-09 20:05:00,
2013-04-09 16:10:00,82.9,60.0,29.92,SSW,200,7.0,8.0,46,0.00,,,0.00,241.00,VWS V14.01,2013-04-09 20:10:00,
2013-04-09 16:15:00,82.9,60.0,29.91,SSW,198,6.0,6.0,46,0.00,,,0.00,656.00,VWS V14.01,2013-04-09 20:15:00,
2013-04-09 16:21:00,83.0,58.9,29.91,SSW,197,8.0,9.0,44,0.00,,,0.00,610.00,VWS V14.01,2013-04-09 20:21:00,
2013-04-09 16:26:00,82.9,59.4,29.91,SSW,206,7.0,8.0,45,0.00,,,0.00,608.00,VWS V14.01,2013-04-09 20:26:00,
2013-04-09 16:31:00,82.9,58.8,29.91,SSW,196,7.0,10.0,44,0.00,,,0.00,552.00,VWS V14.01,2013-04-09 20:31:00,
2013-04-09 16:37:00,82.8,58.0,29.91,SSW,199,2.0,8.0,43,0.00,,,0.00,531.00,VWS V14.01,2013-04-09 20:37:00,
2013-04-09 16:42:00,83.0,59.5,29.91,South,191,3.0,7.0,45,0.00,,,0.00,506.00,VWS V14.01,2013-04-09 20:42:00,
2013-04-09 16:47:00,83.2,59.0,29.90,South,173,0.0,7.0,44,0.00,,,0.00,473.00,VWS V14.01,2013-04-09 20:47:00,
2013-04-09 16:52:00,83.3,59.1,29.90,SSW,194,5.0,9.0,44,0.00,,,0.00,473.00,VWS V14.01,2013-04-09 20:52:00,
2013-04-09 16:57:00,83.3,58.5,29.90,South,189,6.0,8.0,43,0.00,,,0.00,462.00,VWS V14.01,2013-04-09 20:57:00,
2013-04-09 17:02:00,83.3,58.5,29.90,SSW,199,3.0,7.0,43,0.00,,,0.00,452.00,VWS V14.01,2013-04-09 21:02:00,
2013-04-09 17:07:00,83.5,58.0,29.90,South,174,9.0,10.0,42,0.00,,,0.00,436.00,VWS V14.01,2013-04-09 21:07:00,
2013-04-09 17:12:00,83.6,58.1,29.90,SSW,208,7.0,11.0,42,0.00,,,0.00,420.00,VWS V14.01,2013-04-09 21:12:00,
2013-04-09 17:17:00,83.6,57.4,29.89,WSW,254,4.0,9.0,41,0.00,,,0.00,411.00,VWS V14.01,2013-04-09 21:17:00,
2013-04-09 17:23:00,83.9,57.7,29.89,SSE,164,7.0,8.0,41,0.00,,,0.00,403.00,VWS V14.01,2013-04-09 21:23:00,
2013-04-09 17:28:00,84.0,58.5,29.89,SSW,201,4.0,6.0,42,0.00,,,0.00,388.00,VWS V14.01,2013-04-09 21:28:00,
2013-04-09 17:33:00,84.2,58.0,29.89,SW,217,7.0,9.0,41,0.00,,,0.00,364.00,VWS V14.01,2013-04-09 21:33:00,
2013-04-09 17:38:00,84.2,57.3,29.89,SSW,211,4.0,10.0,40,0.00,,,0.00,345.00,VWS V14.01,2013-04-09 21:38:00,
2013-04-09 17:43:00,84.3,57.4,29.89,SW,217,2.0,8.0,40,0.00,,,0.00,325.00,VWS V14.01,2013-04-09 21:43:00,
2013-04-09 17:48:00,84.3,57.4,29.89,SSE,167,6.0,8.0,40,0.00,,,0.00,313.00,VWS V14.01,2013-04-09 21:48:00,
2013-04-09 17:53:00,84.2,57.3,29.89,WSW,241,3.0,11.0,40,0.00,,,0.00,274.00,VWS V14.01,2013-04-09 21:53:00,
2013-04-09 17:58:00,84.1,57.2,29.88,SSE,163,7.0,7.0,40,0.00,,,0.00,265.00,VWS V14.01,2013-04-09 21:58:00,
2013-04-09 18:03:00,83.9,57.7,29.89,SSW,204,5.0,6.0,41,0.00,,,0.00,267.00,VWS V14.01,2013-04-09 22:03:00,
2013-04-09 18:08:00,83.8,57.6,29.89,SW,222,8.0,8.0,41,0.00,,,0.00,251.00,VWS V14.01,2013-04-09 22:08:00,
2013-04-09 18:13:00,83.8,57.6,29.89,South,186,0.0,5.0,41,0.00,,,0.00,234.00,VWS V14.01,2013-04-09 22:13:00,
2013-04-09 18:19:00,83.8,57.6,29.89,SW,217,1.0,7.0,41,0.00,,,0.00,213.00,VWS V14.01,2013-04-09 22:19:00,
2013-04-09 18:24:00,83.8,58.3,29.89,SW,215,3.0,6.0,42,0.00,,,0.00,200.00,VWS V14.01,2013-04-09 22:24:00,
2013-04-09 18:29:00,83.7,57.5,29.89,SW,215,1.0,4.0,41,0.00,,,0.00,183.00,VWS V14.01,2013-04-09 22:29:00,
2013-04-09 18:35:00,83.6,57.4,29.89,South,183,1.0,9.0,41,0.00,,,0.00,153.00,VWS V14.01,2013-04-09 22:35:00,
2013-04-09 18:40:00,83.5,58.0,29.89,SSW,203,3.0,5.0,42,0.00,,,0.00,139.00,VWS V14.01,2013-04-09 22:40:00,
2013-04-09 18:45:00,83.3,57.8,29.89,SSW,205,3.0,8.0,42,0.00,,,0.00,123.00,VWS V14.01,2013-04-09 22:45:00,
2013-04-09 18:50:00,83.0,57.6,29.89,SW,220,0.0,5.0,42,0.00,,,0.00,102.00,VWS V14.01,2013-04-09 22:50:00,
2013-04-09 18:55:00,82.7,58.0,29.89,WSW,245,2.0,6.0,43,0.00,,,0.00,86.00,VWS V14.01,2013-04-09 22:55:00,
2013-04-09 19:00:00,82.3,57.6,29.89,SSW,202,0.0,5.0,43,0.00,,,0.00,67.00,VWS V14.01,2013-04-09 23:00:00,
2013-04-09 19:05:00,82.0,57.3,29.88,SSW,207,3.0,8.0,43,0.00,,,0.00,39.00,VWS V14.01,2013-04-09 23:05:00,
2013-04-09 19:10:00,81.7,57.7,29.88,SSW,209,0.0,8.0,44,0.00,,,0.00,42.00,VWS V14.01,2013-04-09 23:10:00,
2013-04-09 19:15:00,81.4,57.4,29.89,SSW,204,0.0,8.0,44,0.00,,,0.00,28.00,VWS V14.01,2013-04-09 23:15:00,
2013-04-09 19:20:00,81.1,57.2,29.88,SSW,198,6.0,6.0,44,0.00,,,0.00,23.00,VWS V14.01,2013-04-09 23:20:00,
2013-04-09 19:25:00,80.9,57.0,29.88,SSW,210,0.0,7.0,44,0.00,,,0.00,18.00,VWS V14.01,2013-04-09 23:25:00,
2013-04-09 19:30:00,80.6,57.3,29.88,SSW,203,0.0,3.0,45,0.00,,,0.00,14.00,VWS V14.01,2013-04-09 23:30:00,
2013-04-09 19:35:00,80.3,57.0,29.88,SSW,203,0.0,1.0,45,0.00,,,0.00,9.00,VWS V14.01,2013-04-09 23:35:00,
2013-04-09 19:40:00,80.0,56.8,29.88,SW,214,0.0,2.0,45,0.00,,,0.00,5.00,VWS V14.01,2013-04-09 23:40:00,
2013-04-09 19:45:00,79.7,57.1,29.88,SW,214,0.0,0.0,46,0.00,,,0.00,0.00,VWS V14.01,2013-04-09 23:45:00,
2013-04-09 19:50:00,79.5,57.5,29.88,SW,214,0.0,1.0,47,0.00,,,0.00,0.00,VWS V14.01,2013-04-09 23:50:00,
2013-04-09 19:55:00,79.1,57.8,29.89,SSW,213,0.0,1.0,48,0.00,,,0.00,0.00,VWS V14.01,2013-04-09 23:55:00,
2013-04-09 20:00:00,78.7,57.4,29.89,SSW,213,0.0,0.0,48,0.00,,,0.00,0.00,VWS V14.01,2013-04-10 00:00:00,
2013-04-09 20:05:00,78.2,56.9,29.88,SSW,213,0.0,0.0,48,0.00,,,0.00,0.00,VWS V14.01,2013-04-10 00:05:00,
2013-04-09 20:10:00,77.7,57.0,29.89,SSW,213,0.0,0.0,49,0.00,,,0.00,0.00,VWS V14.01,2013-04-10 00:10:00,
2013-04-09 20:15:00,77.4,56.8,29.88,SSW,213,0.0,0.0,49,0.00,,,0.00,0.00,VWS V14.01,2013-04-10 00:15:00,
2013-04-09 20:21:00,76.9,56.9,29.89,SSW,213,0.0,0.0,50,0.00,,,0.00,0.00,VWS V14.01,2013-04-10 00:21:00,
2013-04-09 20:26:00,76.5,56.5,29.89,SSW,213,0.0,0.0,50,0.00,,,0.00,0.00,VWS V14.01,2013-04-10 00:26:00,
2013-04-09 20:31:00,76.1,56.7,29.89,SSW,213,0.0,0.0,51,0.00,,,0.00,0.00,VWS V14.01,2013-04-10 00:31:00,
2013-04-09 20:36:00,75.7,56.3,29.89,SSW,213,0.0,0.0,51,0.00,,,0.00,0.00,VWS V14.01,2013-04-10 00:36:00,
2013-04-09 20:41:00,75.4,56.6,29.89,SSW,213,0.0,0.0,52,0.00,,,0.00,0.00,VWS V14.01,2013-04-10 00:41:00,
2013-04-09 20:46:00,75.1,56.3,29.89,SSW,213,0.0,0.0,52,0.00,,,0.00,0.00,VWS V14.01,2013-04-10 00:46:00,
2013-04-09 20:51:00,74.8,56.0,29.89,SSW,213,0.0,0.0,52,0.00,,,0.00,0.00,VWS V14.01,2013-04-10 00:51:00,
2013-04-09 20:56:00,74.4,56.2,29.89,SSW,213,0.0,0.0,53,0.00,,,0.00,0.00,VWS V14.01,2013-04-10 00:56:00,
2013-04-09 21:01:00,74.2,56.0,29.89,SSW,213,0.0,0.0,53,0.00,,,0.00,0.00,VWS V14.01,2013-04-10 01:01:00,
2013-04-09 21:06:00,73.9,55.7,29.89,SSW,213,0.0,0.0,53,0.00,,,0.00,0.00,VWS V14.01,2013-04-10 01:06:00,
2013-04-09 21:12:00,73.5,55.9,29.89,SSW,213,0.0,0.0,54,0.00,,,0.00,0.00,VWS V14.01,2013-04-10 01:12:00,
2013-04-09 21:17:00,73.2,56.1,29.89,SSW,213,0.0,0.0,55,0.00,,,0.00,0.00,VWS V14.01,2013-04-10 01:17:00,
2013-04-09 21:22:00,72.9,55.8,29.89,SSW,213,0.0,0.0,55,0.00,,,0.00,0.00,VWS V14.01,2013-04-10 01:22:00,
2013-04-09 21:27:00,72.7,55.6,29.89,SSW,213,0.0,3.0,55,0.00,,,0.00,0.00,VWS V14.01,2013-04-10 01:27:00,
2013-04-09 21:32:00,72.5,55.9,29.89,SSW,213,0.0,0.0,56,0.00,,,0.00,0.00,VWS V14.01,2013-04-10 01:32:00,
2013-04-09 21:37:00,72.4,56.3,29.89,SSW,213,0.0,1.0,57,0.00,,,0.00,0.00,VWS V14.01,2013-04-10 01:37:00,
2013-04-09 21:42:00,72.3,56.2,29.88,SSW,213,0.0,1.0,57,0.00,,,0.00,0.00,VWS V14.01,2013-04-10 01:42:00,
2013-04-09 21:48:00,72.2,56.1,29.88,South,178,1.0,4.0,57,0.00,,,0.00,0.00,VWS V14.01,2013-04-10 01:48:00,
2013-04-09 21:53:00,72.1,56.0,29.88,South,180,0.0,3.0,57,0.00,,,0.00,0.00,VWS V14.01,2013-04-10 01:53:00,
2013-04-09 21:58:00,72.1,56.0,29.88,SSW,194,0.0,3.0,57,0.00,,,0.00,0.00,VWS V14.01,2013-04-10 01:58:00,
2013-04-09 22:03:00,72.1,56.0,29.88,South,190,0.0,1.0,57,0.00,,,0.00,0.00,VWS V14.01,2013-04-10 02:03:00,
2013-04-09 22:08:00,72.1,56.0,29.88,SSW,198,0.0,2.0,57,0.00,,,0.00,0.00,VWS V14.01,2013-04-10 02:08:00,
2013-04-09 22:13:00,72.2,56.1,29.88,SSW,197,0.0,3.0,57,0.00,,,0.00,0.00,VWS V14.01,2013-04-10 02:13:00,
2013-04-09 22:18:00,72.3,56.2,29.88,SSW,200,0.0,4.0,57,0.00,,,0.00,0.00,VWS V14.01,2013-04-10 02:18:00,
2013-04-09 22:23:00,72.3,56.2,29.88,SSW,196,0.0,4.0,57,0.00,,,0.00,0.00,VWS V14.01,2013-04-10 02:23:00,
2013-04-09 22:28:00,72.3,56.2,29.88,SSW,196,0.0,1.0,57,0.00,,,0.00,0.00,VWS V14.01,2013-04-10 02:28:00,
2013-04-09 22:33:00,72.3,56.2,29.87,SSW,196,0.0,2.0,57,0.00,,,0.00,0.00,VWS V14.01,2013-04-10 02:33:00,
2013-04-09 22:38:00,72.3,56.2,29.87,SSW,196,0.0,1.0,57,0.00,,,0.00,0.00,VWS V14.01,2013-04-10 02:38:00,
2013-04-09 22:44:00,72.1,56.0,29.87,SSW,196,0.0,1.0,57,0.00,,,0.00,0.00,VWS V14.01,2013-04-10 02:44:00,
2013-04-09 22:49:00,72.0,56.0,29.87,SSW,196,0.0,0.0,57,0.00,,,0.00,0.00,VWS V14.01,2013-04-10 02:49:00,
2013-04-09 22:54:00,71.8,55.8,29.87,SSW,196,0.0,1.0,57,0.00,,,0.00,0.00,VWS V14.01,2013-04-10 02:54:00,
2013-04-09 22:59:00,71.5,55.5,29.86,SSW,196,0.0,0.0,57,0.00,,,0.00,0.00,VWS V14.01,2013-04-10 02:59:00,
2013-04-09 23:04:00,71.3,55.8,29.86,SSW,210,0.0,3.0,58,0.00,,,0.00,0.00,VWS V14.01,2013-04-10 03:04:00,
2013-04-09 23:09:00,71.1,55.6,29.86,SSW,210,0.0,4.0,58,0.00,,,0.00,0.00,VWS V14.01,2013-04-10 03:09:00,
2013-04-09 23:14:00,71.1,55.6,29.86,SSW,202,1.0,5.0,58,0.00,,,0.00,0.00,VWS V14.01,2013-04-10 03:14:00,
2013-04-09 23:19:00,71.3,55.3,29.86,SSW,205,0.0,5.0,57,0.00,,,0.00,0.00,VWS V14.01,2013-04-10 03:19:00,
2013-04-09 23:24:00,71.5,55.5,29.86,SSW,202,2.0,7.0,57,0.00,,,0.00,0.00,VWS V14.01,2013-04-10 03:24:00,
2013-04-09 23:30:00,71.7,55.2,29.86,SSW,202,2.0,6.0,56,0.00,,,0.00,0.00,VWS V14.01,2013-04-10 03:30:00,
2013-04-09 23:35:00,71.7,55.7,29.86,SSW,207,0.0,3.0,57,0.00,,,0.00,0.00,VWS V14.01,2013-04-10 03:35:00,
2013-04-09 23:40:00,71.7,55.2,29.86,SSW,199,0.0,2.0,56,0.00,,,0.00,0.00,VWS V14.01,2013-04-10 03:40:00,
2013-04-09 23:45:00,71.6,55.6,29.86,SSW,199,0.0,1.0,57,0.00,,,0.00,0.00,VWS V14.01,2013-04-10 03:45:00,
2013-04-09 23:50:00,71.3,55.3,29.86,South,181,0.0,2.0,57,0.00,,,0.00,0.00,VWS V14.01,2013-04-10 03:50:00,
2013-04-09 23:55:00,71.1,55.6,29.86,South,180,0.0,1.0,58,0.00,,,0.00,0.00,VWS V14.01,2013-04-10 03:55:00,